Sexton Summit, OR

6:35 PM PDT on April 29, 2017 (GMT -0700)
Sexton Summit

Weather History for KSXT - February, 2014

Change the Weather History Date:

Wednesday, February 26, 2014

  Actual Average Record
Temperature  
Mean Temperature 48 °F -  
Max Temperature 54 °F 38 °F 54 °F (2014)
Min Temperature 41 °F 29 °F 25 °F (2017)
Degree Days  
Heating Degree Days 18    
Moisture  
Dew Point 40 °F    
Average Humidity 77    
Maximum Humidity 100    
Minimum Humidity 58    
Precipitation  
Precipitation 0.03 in - - ()
Sea Level Pressure  
Sea Level Pressure 29.70 in    
Wind  
Wind Speed 9 mph (SE)    
Max Wind Speed 17 mph    
Max Gust Speed 26 mph    
Visibility 10 miles    
Events Rain    
Averages and records for this station are not official NWS values.
T = Trace of Precipitation, MM = Missing Value Source: NWS Daily Summary

Daily Weather History Graph

Daily Weather History Graph

Search for Another Location

Airport or City:

Trip Planner

Search our weather history database for the weather conditions in past years. The results will help you decide how hot, cold, wet, or windy it might be!

Date:

Astronomy

Feb. 26, 2014 Rise Set
Actual Time 6:53 AM PST 5:59 PM PST
Civil Twilight 6:25 AM PST 6:27 PM PST
Nautical Twilight 5:52 AM PST 7:00 PM PST
Astronomical Twilight 5:20 AM PST 7:33 PM PST
Moon 4:47 AM PST (2/26) 3:18 PM PST (2/26)
Length of Visible Light 12h 02m
Length of Day
11h 05m
Waning Crescent, 9% of the Moon is Illuminated
Feb 26
Waning Crescent
Mar 1
New
Mar 8
First Quarter
Mar 16
Full
Mar 23
Last Quarter

Hourly Weather History & Observations

Time (PST) Temp. Windchill Dew Point Humidity Pressure Visibility Wind Dir Wind Speed Gust Speed Precip Events Conditions
12:56 AM 48.0 °F - 39.9 °F 74% 29.78 in 10.0 mi SE 8.1 mph - N/A   Clear
1:56 AM 48.9 °F - 37.9 °F 66% 29.75 in 10.0 mi ESE 9.2 mph - N/A   Mostly Cloudy
2:56 AM 46.9 °F - 37.0 °F 68% 29.77 in 10.0 mi ESE 9.2 mph - N/A   Overcast
3:56 AM 46.9 °F - 36.0 °F 66% 29.78 in 10.0 mi SE 11.5 mph - N/A   Mostly Cloudy
4:56 AM 48.0 °F - 34.0 °F 58% 29.78 in 10.0 mi SE 9.2 mph - N/A   Overcast
5:56 AM 46.9 °F - 33.1 °F 59% 29.78 in 10.0 mi ESE 10.4 mph - N/A   Overcast
6:56 AM 46.0 °F 43.1 °F 33.1 °F 61% 29.78 in 10.0 mi ESE 5.8 mph - N/A   Overcast
7:56 AM 44.1 °F 38.1 °F 37.9 °F 79% 29.81 in 10.0 mi South 11.5 mph - 0.00 in Rain Light Rain
8:56 AM 44.1 °F 38.1 °F 39.0 °F 82% 29.80 in 10.0 mi SSW 11.5 mph - 0.00 in   Mostly Cloudy
9:56 AM 46.0 °F 41.9 °F 39.9 °F 79% 29.79 in 10.0 mi SE 8.1 mph - N/A   Mostly Cloudy
10:56 AM 51.1 °F - 41.0 °F 68% 29.76 in 10.0 mi ESE 6.9 mph - N/A   Partly Cloudy
11:56 AM 52.0 °F - 41.0 °F 66% 29.75 in 10.0 mi Variable 4.6 mph - N/A   Mostly Cloudy
12:56 PM 51.1 °F - 39.9 °F 66% 29.73 in 10.0 mi ESE 4.6 mph - N/A   Overcast
1:56 PM 52.0 °F - 42.1 °F 69% 29.69 in 10.0 mi Variable 3.5 mph - N/A   Mostly Cloudy
2:56 PM 54.0 °F - 41.0 °F 62% 29.65 in 10.0 mi ESE 6.9 mph - N/A   Clear
3:56 PM 52.0 °F - 41.0 °F 66% 29.63 in 10.0 mi ESE 8.1 mph - N/A   Mostly Cloudy
4:56 PM 48.9 °F - 39.0 °F 69% 29.62 in 10.0 mi Variable 5.8 mph - N/A   Overcast
5:56 PM 46.0 °F 42.5 °F 42.1 °F 86% 29.62 in 10.0 mi ESE 6.9 mph 19.6 mph 0.00 in Rain Light Rain
6:41 PM 45.0 °F 38.5 °F 43.0 °F 93% 29.66 in 10.0 mi South 13.8 mph - 0.00 in   Overcast
6:49 PM 45.0 °F 38.2 °F 43.0 °F 93% 29.65 in 10.0 mi SSE 15.0 mph - 0.00 in   Overcast
6:56 PM 45.0 °F 38.2 °F 42.1 °F 90% 29.63 in 10.0 mi SSE 15.0 mph - 0.00 in   Overcast
7:44 PM 44.1 °F 39.5 °F 43.0 °F 96% 29.65 in 9.0 mi SE 8.1 mph - 0.01 in Rain Light Rain
7:56 PM 43.0 °F 38.2 °F 43.0 °F 100% 29.63 in 7.0 mi ESE 8.1 mph - 0.01 in Rain Light Rain
8:56 PM 42.1 °F 35.7 °F 41.0 °F 96% 29.62 in 10.0 mi ESE 11.5 mph - 0.02 in   Overcast
9:56 PM 41.0 °F 33.5 °F 39.9 °F 96% 29.58 in 10.0 mi ESE 13.8 mph 21.9 mph 0.00 in   Scattered Clouds
10:56 PM 42.1 °F 33.9 °F 39.0 °F 89% 29.55 in 10.0 mi ESE 17.3 mph 26.5 mph N/A   Overcast
11:56 PM 42.1 °F 36.1 °F 39.0 °F 89% 29.54 in 10.0 mi ESE 10.4 mph - 0.00 in Rain Light Rain